User: anonymous   Login
Location: LDNL
(36.4545°S, 141.6685°E)
Time: 17:24:26
(UTC+11:00)
Language:

CZ-2C DEB - Orbit

View from above orbital plane
View from above orbital plane
View from above satellite
View from above satellite

Ground track
Ground track

The orbit data is extracted from the following two-line orbital elements,

1 37769U 11039E   22278.49530954  .00007349  00000-0  12721-2 0  9994
2 37769  98.3853 175.0777 0077341 181.4726 351.3542 14.66663757595761
Epoch (UTC): 05 October 2022 11:53:14
Eccentricity: 0.0077341
inclination: 98.3853°
perigee height: 617 km
apogee height: 726 km
right ascension of ascending node: 175.0777°
argument of perigee: 181.4726°
revolutions per day: 14.66663757
mean anomaly at epoch: 351.3542°
orbit number at epoch: 59576

The dashed part of the orbit path shows where the satellite is in the earth's shadow,  

DLR